Location: Unspecified
(25.6470°N, 106.8560°E)
Time: 07:34:50
(UTC+00:00)

Daily predictions for brighter satellites

Satellite Brightness Start Highest point End
(mag) Time Altitude Azimuth Time Altitude Azimuth Time Altitude Azimuth
CZ-2D R/B 3.7 12:01:23 10° SSE 12:04:57 41° ENE 12:08:32 10° N
Genesis I 3.7 12:02:04 10° N 12:05:58 43° ENE 12:09:04 15° SE
Cosmos 1151 Rocket 3.0 12:04:37 10° S 12:08:46 55° E 12:12:56 10° NNE
ATLAS 2AS CENTAUR R/B 3.0 12:07:23 10° NNW 12:14:55 57° ENE 12:20:43 15° SE
USA 186 3.0 12:18:21 15° NE 12:18:21 15° NE 12:19:16 10° NNE
HJ-1C 3.4 12:15:50 10° S 12:19:10 79° W 12:22:31 10° NNW
Cosmos 1939 Rocket 3.8 12:18:24 21° ESE 12:19:53 27° ENE 12:23:12 10° NNE
ASTRO E2 4.0 12:17:41 10° WNW 12:21:24 35° N 12:24:43 12° ENE
Resurs 01 Rocket 2.6 12:21:31 21° ESE 12:23:15 28° ENE 12:27:01 10° NNE
Sich 1 4.0 12:21:58 10° NNW 12:26:03 47° W 12:30:09 10° SSW
Cosmos 1825 3.0 12:23:34 10° NNE 12:26:54 29° E 12:27:30 28° E
Cosmos 1666 Rocket 4.4 12:23:01 10° NNW 12:27:20 52° W 12:31:36 10° S
Cosmos 1844 Rocket 4.0 12:26:14 10° NW 12:31:27 39° WSW 12:36:38 10° S
Palapa 6 Rocket 4.4 12:27:26 10° SW 12:32:10 26° SSE 12:33:25 24° SE
ATLAS 3B CENTAUR R/B 4.5 12:16:19 10° WNW 12:32:31 38° SW 12:38:55 13° SSE
Cosmos 1933 Rocket 3.7 12:29:09 10° N 12:33:21 49° E 12:35:22 27° SE
Hubble Space Telescope 0.7 12:31:49 10° WSW 12:35:55 67° SSE 12:37:34 34° E
Cosmos 1408 2.7 12:35:35 10° N 12:39:13 54° E 12:40:05 42° SE
Envisat 3.2 12:34:47 10° S 12:39:50 72° WSW 12:44:54 10° NNW
Fermi 4.0 12:36:42 10° W 12:40:46 55° SSW 12:41:57 39° SE
Meteor 2-3 Rocket 3.9 12:36:10 10° NNW 12:41:47 73° W 12:47:27 10° S
H-2A R/B 1.9 12:40:13 10° W 12:42:44 23° SW 12:42:44 23° SW
GPS 2-17 Rocket1 3.8 12:38:22 10° WSW 12:42:46 38° S 12:43:48 34° SE
Resurs 1-3 3.7 12:43:57 37° SE 12:45:21 55° ENE 12:49:38 10° N
ASC 2 Rocket 4.3 12:39:34 10° W 12:45:38 78° S 12:51:07 26° E
CZ-4C R/B 1.9 12:41:04 10° SSW 12:45:50 58° ESE 12:51:04 10° NE
SJ-11-01 4.5 12:47:54 40° ESE 12:49:00 49° ENE 12:53:29 10° N
YAOGAN 6 2.4 12:48:31 48° SSE 12:49:28 86° ENE 12:53:06 10° N
Cosmos 2344 3.4 12:46:29 10° SSW 12:54:25 76° ESE 13:02:08 10° NNE
H-2A R/B 4.1 12:56:23 11° NE 12:56:23 11° NE 12:57:03 10° NE
ERS-2 2.6 12:53:39 29° SSW 12:55:15 56° WSW 12:58:52 10° NNW
BREEZE-M DEB (TANK) 3.9 12:36:57 10° NW 12:58:28 75° SW 13:00:44 36° SSE
Cosmos 1452 Rocket 3.4 12:56:52 23° S 13:00:06 61° ESE 13:05:16 10° NNE
NOAA 11 4.4 12:59:19 44° ESE 13:00:26 51° ENE 13:05:45 10° N
Cosmos 2278 Rocket 2.4 13:00:28 10° NNW 13:06:07 69° WSW 13:08:49 31° S
Centaur D-1AR AC-41 3.5 12:56:17 10° WSW 13:06:33 50° S 13:07:14 47° SSE
Meteor 2-10 Rocket 4.2 13:07:37 10° SSW 13:13:13 61° W 13:18:58 10° N
Aurora 2 Rocket 3.8 13:08:45 10° WSW 13:18:02 75° S 13:19:57 52° ESE
ATLAS 2A CENTAUR R/B 4.4 12:55:36 10° WSW 13:19:58 89° SSE 13:26:31 32° E
ARGOS 4.2 13:23:16 32° NE 13:23:16 32° NE 13:26:47 10° N
Spot 2 Rocket 3.5 13:21:24 65° S 13:22:08 79° WSW 13:27:14 10° NNW
Cosmos 1190 Rocket 3.9 13:19:27 10° N 13:24:26 74° NE 13:24:26 74° NE
Cosmos 1441 Rocket 4.5 13:27:25 38° NW 13:27:25 38° NW 13:30:18 10° N
Cosmos 1727 Rocket 3.8 13:21:59 10° N 13:28:10 85° E 13:29:04 67° SSE
OAO 3 Rocket 4.2 13:35:21 10° W 13:39:48 40° NNW 13:39:48 40° NNW
SL-16 R/B 4.5 13:36:09 10° WSW 13:40:28 22° WNW 13:44:49 10° NNW
Resurs 01 Rocket 4.0 13:59:05 17° WSW 13:59:38 17° W 14:02:31 10° NW
Cosmos 2369 Rocket 4.4 14:16:55 10° N 14:18:22 17° NNE 14:18:22 17° NNE
H-2A R/B 4.3 14:37:01 20° NW 14:37:01 20° NW 14:38:37 10° NNW
ATLAS 5 CENTAUR R/B 4.4 14:28:57 10° N 14:31:17 20° NNE 14:31:17 20° NNE
ATLAS 3B R/B 4.2 18:31:45 32° NNE 18:31:45 32° NNE 18:35:08 10° NNE
Resurs 1-4 Rocket 4.4 19:11:55 10° N 19:13:03 16° N 19:13:03 16° N
SL-16 R/B 4.1 19:26:49 25° NNW 19:26:49 25° NNW 19:29:18 10° NNW
SL-16 R/B 3.0 19:47:48 10° NNW 19:51:30 42° NNW 19:51:30 42° NNW
SJ 16-02 2.5 19:56:51 10° N 20:01:02 41° ENE 20:01:16 41° E
Cosmos 2322 Rocket 2.9 20:00:04 10° NNW 20:03:46 43° NNW 20:03:46 43° NNW
Cosmos 1238 Rocket 4.2 20:12:57 35° S 20:15:54 74° E 20:22:36 10° N
CZ-4B R/B 4.3 20:17:29 10° NE 20:21:01 32° E 20:22:06 27° SE
Cosmos 1400 Rocket 4.3 20:21:31 27° SE 20:22:46 34° E 20:26:22 10° NNE
SEDSat Delta rocket 3.8 20:22:23 45° WNW 20:24:30 86° NNE 20:31:15 10° ESE
Atlas Centaur 2 3.6 20:24:54 34° SSW 20:27:54 47° SSE 20:36:00 10° E
Cosmos 1953 4.0 20:27:12 10° NNW 20:28:59 24° NNW 20:28:59 24° NNW
Cosmos 2266 Rocket 4.3 20:25:33 10° NNW 20:31:11 44° W 20:31:11 44° W
H-II Stage 2 2.9 20:31:24 48° W 20:32:48 78° N 20:51:44 10° E
ADEOS II 2.4 20:28:17 10° N 20:33:13 44° WNW 20:33:13 44° WNW
CENTAUR R/B 2.5 20:33:50 45° W 20:34:49 50° WNW 20:40:59 10° NNE
GPS 2-04 Rocket1 2.8 20:44:44 50° SE 20:44:44 50° SE 20:47:57 10° ENE
MINOTAUR IV R/B 4.5 20:43:28 46° SSW 20:44:48 87° WNW 20:49:24 10° NNE
Cosmos 1825 Rocket 3.5 20:44:40 54° W 20:44:51 55° W 20:49:05 10° N
S3M 4.0 20:39:28 13° S 20:45:01 81° E 20:51:07 10° N
BREEZE-M DEB (TANK) 3.6 20:39:21 10° NW 20:46:14 44° NNE 20:48:55 10° ESE
Cosmos 1125 Rocket 3.4 20:41:18 10° NNW 20:46:34 71° WSW 20:51:46 10° S
Cosmos 372 Rocket 3.9 20:44:04 10° NNW 20:49:10 60° WSW 20:54:12 10° S
Cosmos 2292 Rocket 4.5 20:46:54 10° NNE 20:49:37 31° E 20:52:18 10° SSE
USA 215 3.4 20:44:59 10° NNE 20:51:21 57° NW 20:54:39 29° WSW
ATLAS CENTAUR R/B 1.7 20:49:13 10° NNW 20:53:50 81° ENE 20:58:40 10° SSE
Cosmos 2322 3.8 20:50:20 10° NNW 20:56:04 82° ENE 21:01:47 10° SSE
Palapa B4 Rocket 3.9 20:56:34 33° SW 20:57:55 40° S 21:03:51 10° ESE
Cosmos 2237 4.3 20:53:22 10° NNW 20:59:07 83° ENE 21:04:49 10° SSE
PSLV R/B 4.1 21:02:22 10° N 21:06:12 36° WNW 21:07:20 30° WSW
CZ-4B DEB 4.3 21:01:37 10° NNE 21:07:09 78° ESE 21:12:37 10° S
USA 161 4.1 21:04:50 10° SE 21:07:22 25° ENE 21:09:50 10° NNE
Cosmos 1674 3.0 21:08:44 10° S 21:12:30 65° E 21:16:14 10° NNE
Okean O Rocket 1.5 21:08:17 10° NNE 21:12:38 88° ESE 21:16:57 10° SSW
Cosmos 1953 Rocket 4.2 21:12:02 25° SW 21:13:55 36° W 21:18:00 10° NNW
H-2A DEB 3.5 21:13:10 37° WSW 21:13:59 85° SSE 21:17:33 10° ENE
Cosmos 2360 Rocket 2.5 21:10:10 10° NW 21:15:27 43° WSW 21:20:45 10° S
Meteor PRIRODA 3.6 21:16:02 10° N 21:19:45 84° WNW 21:23:29 10° SSW
IDEFIX/ARIANE 42P 3.8 21:16:08 10° NNE 21:21:07 43° E 21:26:05 10° S
CZ-4B R/B 3.8 21:18:28 10° N 21:22:28 83° WNW 21:26:40 10° SSW
Cosmos 2219 3.9 21:20:22 18° WSW 21:23:49 34° WNW 21:29:00 10° N
ISS -1.1 21:22:23 10° SSE 21:24:24 16° SE 21:26:26 10° E
Cosmos 2084 4.1 21:22:01 20° WSW 21:24:32 38° WNW 21:28:28 10° N
Cosmos 2082 4.3 21:19:49 10° S 21:25:23 61° ESE 21:31:00 10° NNE
GPS 2-18 Rocket1 3.8 21:26:47 19° WSW 21:28:50 35° S 21:32:14 10° ESE
IRS-1C Rocket 4.2 21:27:47 10° NNE 21:33:03 82° ESE 21:38:19 10° S
Cosmos 2227 Rocket 2.2 21:29:43 10° SSW 21:35:20 77° WNW 21:40:59 10° NNE
Meteosat 1 Rocket2 4.3 21:30:16 10° W 21:36:13 71° SSW 21:45:38 10° ESE
Cosmos 2297 Rocket 2.2 21:31:42 10° SSW 21:37:21 85° WNW 21:43:02 10° NNE
Cosmos 2219 Rocket 2.5 21:34:09 10° NNW 21:39:43 70° ENE 21:45:16 10° SSE
KORONAS-FOTON 3.8 21:38:32 10° SSW 21:42:20 63° W 21:46:07 10° N
Meteor 1-31 Rocket 3.4 21:41:33 10° N 21:45:03 34° WNW 21:48:31 10° SW
Cosmos 2333 Rocket 2.7 21:39:27 10° NNW 21:45:06 67° ENE 21:50:45 10° SSE
Cosmos 923 Rocket 4.1 21:39:51 10° SSW 21:45:07 62° WNW 21:50:24 10° N
Cosmos 2333 4.2 21:41:57 10° NNW 21:47:27 58° WSW 21:52:59 10° S
Cosmos 2237 Rocket 4.0 21:43:52 10° N 21:49:05 37° ENE 21:54:18 10° SE
COSMOS 2428 2.8 21:44:31 10° NNW 21:50:04 59° WSW 21:55:37 10° S
Cosmos 2112 Rocket 4.0 21:46:19 10° SSW 21:51:35 88° W 21:56:50 10° NNE
COSMOS 2455 3.2 21:47:12 10° SSW 21:53:10 71° ESE 21:59:10 10° NNE
Cosmos 1315 Rocket 3.9 21:52:51 10° SW 21:56:14 26° W 21:59:36 10° NNW
Cosmos 1680 Rocket 3.6 21:53:46 10° SSW 21:58:56 60° WNW 22:04:06 10° N
Cosmos 1346 Rocket 3.4 21:56:25 10° N 22:00:15 61° E 22:04:02 10° SSE
NOSS 0 Rocket 4.4 21:54:19 10° NNW 22:00:33 71° ENE 22:06:45 10° SSE
ATLAS 2A CENTAUR R/B 3.8 21:52:17 10° WSW 22:21:21 90° ENE 22:26:44 10° E
